Regional Weather Roundup
Issued by NWS

Home | Current Version | Previous Version | Text Only | Print | Product List | Glossary On
Versions: 1 2 3 4 5 6 7 8 9 10 11 12 13 14 15 16 17 18 19 20 21 22 23 24 25 26 27 28 29 30 31 32 33 34 35 36 37 38 39 40 41 42 43 44 45 46 47 48 49 50
000
ASUS45 KREV 210810
RWRNV
NEVADA REGIONAL WEATHER ROUNDUP
NATIONAL WEATHER SERVICE RENO NV
100 AM PDT TUE APR 21 2015

NOTE: "FAIR" INDICATES FEW OR NO CLOUDS BELOW 12,000 FEET WITH NO
SIGNIFICANT WEATHER AND/OR OBSTRUCTIONS TO VISIBILITY.

NVZ001-003-004-210900-
WESTERN NEVADA

CITY           SKY/WX    TMP DP  RH WIND       PRES   REMARKS
RENO           CLEAR     55  27  34 S6        29.91S
CARSON CITY    FAIR      50  25  37 CALM      29.93S
MINDEN         FAIR      39  27  60 NE3       29.95
SLIDE MTN        N/A     39  21  48 NW8         N/A
PYRAMID LAKE     N/A     61 N/A N/A SW8         N/A
FALLON         CLEAR     48  14  25 S9        29.85S
LOVELOCK       CLEAR     44   3  18 E10       29.85S
HAWTHORNE      CLEAR     55  19  24 S7        29.88S
$$

NVZ002-CAZ072-073-210900-
NORTHERN AND CENTRAL SIERRA

CITY           SKY/WX    TMP DP  RH WIND       PRES   REMARKS
S. LAKE TAHOE  CLEAR     38  25  59 VRB3      30.00S
TRUCKEE        CLEAR     34  30  86 CALM      30.00S
SQUAW VLY 8000   N/A     45  21  39 VRB5        N/A
SUSANVILLE     CLEAR    N/A N/A N/A W5          N/A
BLUE CANYON    CLEAR     58  28  32 NE5       29.96S
MAMMOTH LAKES  FAIR      43  23  45 W6        30.03F
BRIDGEPORT     FAIR      32  18  56 CALM      30.02S
$$

NVZ030-031-036-210900-
NORTHERN NEVADA

CITY           SKY/WX    TMP DP  RH WIND       PRES   REMARKS
ELKO           CLEAR     38  19  46 CALM      29.91S
WINNEMUCCA     CLEAR     44  14  29 CALM      29.88R
WENDOVER       PTCLDY    48  19  32 NE6       29.88S
$$

NVZ035-037-210900-
CENTRAL NEVADA

CITY           SKY/WX    TMP DP  RH WIND       PRES   REMARKS
ELY            CLEAR     33   5  30 S14       29.97S
EUREKA           N/A     38  10  31 S8        29.95S
$$

NVZ013-014-210900-
SOUTH CENTRAL NEVADA

CITY           SKY/WX    TMP DP  RH WIND       PRES   REMARKS
TONOPAH        PTCLDY    48  -2  12 CALM      29.91R
$$

NVZ017-020-022-210900-
SOUTHERN NEVADA

CITY           SKY/WX    TMP DP  RH WIND       PRES   REMARKS
LAS VEGAS      PTCLDY    73  16  11 S9        29.73S
N. LAS VEGAS   CLEAR     72  15  11 SW5       29.76R
NELLIS AFB     CLEAR     73  20  13 SW7       29.75R
HENDERSON      CLEAR     68  18  14 SW8       29.80S
MERCURY        CLEAR     72  14  11 S20G28    29.80R
$$


USA.gov is the U.S. government's official web portal to all federal, state and local government web resources and services.